Regional Weather Roundup
Issued by NWS State College, PA

Home | Current Version | Previous Version | Text Only | Print | Product List | Glossary On
Versions: 1 2 3 4 5 6 7 8 9 10 11 12 13 14 15 16 17 18 19 20 21 22 23 24 25 26 27 28 29 30 31 32 33 34 35 36 37 38 39 40 41 42 43 44 45 46 47 48 49 50
000
ASUS41 KCTP 282003
RWRCTP

REGIONAL WEATHER ROUNDUP
NATIONAL WEATHER SERVICE STATE COLLEGE PA
400 PM EDT SAT MAR 28 2015

Note: "fair" indicates few or no clouds below 12,000 feet with no
significant weather and/or obstructions to visibility.

* = STATION THAT DOES NOT REPORT PRECIPITATION /E.G. RAIN...SNOW...ETC/
    THUNDER OR FOG.

PAZ002>004-007>009-013>016-020>023-029>032-282100-
WESTERN PENNSYLVANIA

CITY           SKY/WX    TMP DP  RH WIND       PRES   REMARKS
ERIE           SUNNY     24   5  44 W13       30.21F WCI  12
MEADVILLE      SUNNY     23   7  50 NW10G20   30.14S WCI  12
FRANKLIN*      SUNNY     25   3  39 NW9       30.12S
NEW CASTLE     FAIR      27  10  48 NW14G21   30.18S
BEAVER COUNTY  PTSUNNY   27   9  46 N12G18    30.15S
BUTLER*        PTSUNNY   27   9  46 NW12G21   30.14S
PITTSBURGH INT PTSUNNY   28   8  43 NW13      30.14S
PITTSBURGH     PTSUNNY   28   6  39 N10G20    30.12S
INDIANA*       CLOUDY    25   9  50 NW16      30.11S WCI  12
LATROBE        CLOUDY    25   9  50 NW12G23   30.14R WCI  14
WASHINGTON CO* PTSUNNY   30   9  40 NW15G21   30.15S
$$

PAZ004>006-010>012-017>019-024>028-033>037-041-042-045-046-049>053-282100-
CENTRAL PENNSYLVANIA

CITY           SKY/WX    TMP DP  RH WIND       PRES   REMARKS
BRADFORD       MOSUNNY   21   6  52 NW20      30.00R WCI   6
DUBOIS         MOSUNNY   26   1  34 N13G25    30.00S WCI  15
CLEARFIELD     PTSUNNY   28   6  39 NW12G28   30.00F
JOHNSTOWN      LGT SNOW  18  12  77 NW20G25   29.99R VSB 3/4 WCI   2
ALTOONA        CLOUDY    24   8  50 NW18G28   30.02R WCI  10
STATE COLLEGE  CLOUDY    27   7  43 NW13G25   29.99S
WILLIAMSPORT   PTSUNNY   30   5  34 N13G24    30.00R
SELINSGROVE    CLOUDY    31  14  49 NW17G25   30.00S
FT INDIANTOWN  PTSUNNY   32  12  43 NW14G20   29.97R
CAPITAL CITY   LGT SNOW  29  19  66 NW17G28   30.01R
HARRISBURG     FLURRIES  31  17  56 N17G32    30.00R
YORK           PTSUNNY   33  12  41 W13G23    29.99R
$$

PAZ038>040-043-044-047-048-054-055-060>062-067>071-282100-
EASTERN PENNSYLVANIA

CITY           SKY/WX    TMP DP  RH WIND       PRES   REMARKS
SCRANTON       CLOUDY    27  10  49 NW17G23   29.93S WCI  14
MOUNT POCONO   CLOUDY    23  10  57 NW21G31   29.83R WCI   8
ALLENTOWN      MOSUNNY   36  13  38 NW15G24   29.92R
QUAKERTOWN*    PTCLDY    37  16  41 N13G20    29.90R
READING        PTSUNNY   37  12  35 W21G30    29.93R
LANCASTER      CLOUDY    34  12  40 NW17      29.96R
COATESVILLE    MOCLDY    36  14  41 NW20G25   29.92S
POTTSTOWN      CLOUDY    37  14  38 NW13G21   29.92R
BLUE BELL      MOSUNNY   37  18  44 N10G16    29.89S
DOYLESTOWN     CLOUDY    35  13  40 NW8G26    29.88R
WILLOW GROVE   NOT AVBL
NORTH PHILA    CLOUDY    41  13  31 NW16G25   29.91R
PHILADELPHIA   CLOUDY    40  13  33 NW20G29   29.92R
$$


USA.gov is the U.S. government's official web portal to all federal, state and local government web resources and services.